Regional Weather Roundup
Issued by NWS

Home | Current Version | Previous Version | Text Only | Print | Product List | Glossary On
Versions: 1 2 3 4 5 6 7 8 9 10 11 12 13 14 15 16 17 18 19 20 21 22 23 24 25 26 27 28 29 30 31 32 33 34 35 36 37 38 39 40 41 42 43 44 45 46 47 48 49 50
000
ASUS44 KOUN 170200
RWROK

WEATHER ROUNDUP FOR OKLAHOMA
NATIONAL WEATHER SERVICE NORMAN OK
900 PM CDT TUE SEP 16 2014

NOTE: "FAIR" INDICATES FEW OR NO CLOUDS BELOW 12,000 FEET WITH NO
      SIGNIFICANT WEATHER AND/OR OBSTRUCTIONS TO VISIBILITY.

OKZ001>007-009>012-014-015-017-170300-
NORTHWEST OKLAHOMA AND THE PANHANDLE

CITY           SKY/WX    TMP DP  RH WIND       PRES   REMARKS
GAGE           CLEAR     74  64  71 S10       30.01S
ENID/WOODRING  PTCLDY    73  68  83 E12       29.98S
$$

OKZ016-021>023-033>039-044-045-170300-
SOUTHWEST OKLAHOMA

CITY           SKY/WX    TMP DP  RH WIND       PRES   REMARKS
LAWTON/REGL    CLOUDY    79  67  66 SE5       30.01R
LAWTON/FT SILL CLOUDY    78  68  70 S5        30.00R
FREDERICK      CLOUDY    80  67  64 SE7       29.98R
CLINTON        CLOUDY    79  65  62 S7        30.04R
HOBART         CLOUDY    79  65  62 S8        30.02R
$$

OKZ018>020-024>031-170300-
CENTRAL OKLAHOMA

CITY           SKY/WX    TMP DP  RH WIND       PRES   REMARKS
OKLAHOMA CITY  CLOUDY    80  71  74 E12       30.01R
OKC/WILEY POST PTCLDY    78  71  79 E12       30.01R
OKC/TINKER AFB PTCLDY    76  71  84 E9        30.02R
STILLWATER     CLEAR     72  66  81 E7        30.01R
GUTHRIE        CLEAR     74  69  85 E5        30.01R
$$

OKZ008-013-054>072-170300-
NORTHEAST OKLAHOMA

CITY           SKY/WX    TMP DP  RH WIND       PRES   REMARKS
TULSA          CLEAR     70  65  84 SE3       30.00S
TULSA/JONES    CLEAR     72  66  81 E5        30.01S
PONCA CITY     CLEAR     69  65  86 SE6       30.01R
BARTLESVILLE   CLEAR     64  64 100 CALM      30.03R
MUSKOGEE       CLEAR     72  69  90 NE3       30.02S
$$

OKZ032-040>043-046>053-073>077-170300-
SOUTH CENTRAL/SOUTHEAST OKLAHOMA

CITY           SKY/WX    TMP DP  RH WIND       PRES   REMARKS
MCALESTER      CLEAR     78  72  81 E5        30.02R
$$



USA.gov is the U.S. government's official web portal to all federal, state and local government web resources and services.